Location: Laguna de la Cañada del Gallo
(40.3974°N, 5.2096°W)
Time: 02:02:30
(UTC+00:00)

NOSS 3-1 (C) - Pass Details

Date: 18 April 2024
Orbit: 652 x 1553 km, 63.4° (Epoch: 15 May)

Event Time Altitude Azimuth Distance (km) Brightness Sun altitude
Rises 20:02:02 0° 233° (SW) 3,009 6.5 -11.3°
Reaches altitude 10° 20:04:18 10° 240° (WSW) 2,149 5.8 -11.7°
Maximum altitude 20:08:54 43° 313° (NW) 1,063 4.3 -12.5°
Drops below altitude 10° 20:14:22 10° 25° (NNE) 2,546 5.7 -13.4°
Sets 20:17:17 0° 31° (NNE) 3,635 6.5 -13.9°
